Time,TemperatureF,DewpointF,PressureIn,WindDirection,WindDirectionDegrees,WindSpeedMPH,WindSpeedGustMPH,Humidity,HourlyPrecipIn,Conditions,Clouds,dailyrainin,SoftwareType,DateUTC
2013-01-26 00:21:00,60.0,59.0,30.03,North,0,0.0,-999.0,97,0.03,,,-99.99,,2013-01-26 08:21:00,
2013-01-26 00:31:00,60.0,59.0,30.03,North,0,0.0,-999.0,97,0.03,,,-99.99,,2013-01-26 08:31:00,
2013-01-26 00:42:00,60.0,59.0,30.03,North,0,0.0,-999.0,97,0.03,,,-99.99,,2013-01-26 08:42:00,
2013-01-26 00:51:00,60.0,59.0,30.03,North,0,0.0,-999.0,97,0.03,,,-99.99,,2013-01-26 08:51:00,
2013-01-26 01:22:00,60.0,59.0,30.03,North,0,0.0,-999.0,97,0.03,,,-99.99,,2013-01-26 09:22:00,
2013-01-26 01:31:00,60.0,59.0,30.03,North,0,0.0,-999.0,97,0.03,,,-99.99,,2013-01-26 09:31:00,
2013-01-26 01:42:00,60.0,59.0,30.03,North,0,0.0,-999.0,97,0.03,,,-99.99,,2013-01-26 09:42:00,
2013-01-26 01:51:00,60.0,59.0,30.00,North,0,0.0,-999.0,97,0.01,,,-99.99,,2013-01-26 09:51:00,
2013-01-26 02:21:00,60.0,59.0,30.00,North,0,0.0,-999.0,97,0.01,,,-99.99,,2013-01-26 10:21:00,
2013-01-26 02:31:00,60.0,59.0,30.00,North,0,0.0,-999.0,97,0.01,,,-99.99,,2013-01-26 10:31:00,
2013-01-26 02:42:00,60.0,59.0,30.00,North,0,0.0,-999.0,97,0.01,,,-99.99,,2013-01-26 10:42:00,
2013-01-26 02:51:00,59.0,58.0,29.99,North,0,0.0,-999.0,98,0.01,,,-99.99,,2013-01-26 10:51:00,
2013-01-26 03:22:00,59.0,58.0,29.99,North,0,0.0,-999.0,98,0.01,,,-99.99,,2013-01-26 11:22:00,
2013-01-26 03:32:00,59.0,58.0,29.99,North,0,0.0,-999.0,98,0.01,,,-99.99,,2013-01-26 11:32:00,
2013-01-26 03:42:00,59.0,58.0,29.99,North,0,0.0,-999.0,98,0.01,,,-99.99,,2013-01-26 11:42:00,
2013-01-26 03:51:00,59.0,58.0,29.98,North,0,0.0,-999.0,98,0.00,,,-99.99,,2013-01-26 11:51:00,
2013-01-26 04:22:00,59.0,58.0,29.98,North,0,0.0,-999.0,98,0.00,,,-99.99,,2013-01-26 12:22:00,
2013-01-26 04:33:00,59.0,58.0,29.98,North,0,0.0,-999.0,98,0.00,,,-99.99,,2013-01-26 12:33:00,
2013-01-26 04:42:00,59.0,58.0,29.98,North,0,0.0,-999.0,98,0.00,,,-99.99,,2013-01-26 12:42:00,
2013-01-26 04:51:00,59.0,58.0,29.97,North,0,0.0,-999.0,98,0.00,,,-99.99,,2013-01-26 12:51:00,
2013-01-26 05:22:00,59.0,58.0,29.97,North,0,0.0,-999.0,98,0.00,,,-99.99,,2013-01-26 13:22:00,
2013-01-26 05:32:00,59.0,58.0,29.97,North,0,0.0,-999.0,98,0.00,,,-99.99,,2013-01-26 13:32:00,
2013-01-26 05:42:00,59.0,58.0,29.97,North,0,0.0,-999.0,98,0.00,,,-99.99,,2013-01-26 13:42:00,
2013-01-26 05:51:00,59.0,58.0,29.97,SE,140,2.0,-999.0,98,0.00,,,-99.99,,2013-01-26 13:51:00,
2013-01-26 06:21:00,59.0,58.0,29.97,SE,140,2.0,-999.0,98,0.00,,,-99.99,,2013-01-26 14:21:00,
2013-01-26 06:32:00,59.0,58.0,29.97,SE,140,2.0,-999.0,98,0.00,,,-99.99,,2013-01-26 14:32:00,
2013-01-26 06:42:00,59.0,58.0,29.97,SE,140,2.0,-999.0,98,0.00,,,-99.99,,2013-01-26 14:42:00,
2013-01-26 06:51:00,59.0,58.0,29.98,South,170,5.0,-999.0,98,0.00,,,-99.99,,2013-01-26 14:51:00,
2013-01-26 07:22:00,59.0,58.0,29.98,South,170,5.0,-999.0,98,0.00,,,-99.99,,2013-01-26 15:22:00,
2013-01-26 07:32:00,59.0,58.0,29.98,South,170,5.0,-999.0,98,0.00,,,-99.99,,2013-01-26 15:32:00,
2013-01-26 07:43:00,59.0,58.0,29.98,South,170,5.0,-999.0,98,0.00,,,-99.99,,2013-01-26 15:43:00,
2013-01-26 07:51:00,58.0,57.0,29.99,South,170,7.0,-999.0,98,0.00,,,-99.99,,2013-01-26 15:51:00,
2013-01-26 08:22:00,58.0,57.0,29.99,South,170,7.0,-999.0,98,0.00,,,-99.99,,2013-01-26 16:22:00,
2013-01-26 08:32:00,58.0,57.0,29.99,South,170,7.0,-999.0,98,0.00,,,-99.99,,2013-01-26 16:32:00,
2013-01-26 08:42:00,58.0,57.0,29.99,South,170,7.0,-999.0,98,0.00,,,-99.99,,2013-01-26 16:42:00,
2013-01-26 08:51:00,58.0,58.0,30.00,North,0,0.0,-999.0,99,0.01,,,-99.99,,2013-01-26 16:51:00,
2013-01-26 09:22:00,58.0,58.0,30.00,North,0,0.0,-999.0,99,0.01,,,-99.99,,2013-01-26 17:22:00,
2013-01-26 09:32:00,58.0,58.0,30.00,North,0,0.0,-999.0,99,0.01,,,-99.99,,2013-01-26 17:32:00,
2013-01-26 09:42:00,58.0,58.0,30.00,North,0,0.0,-999.0,99,0.01,,,-99.99,,2013-01-26 17:42:00,
2013-01-26 09:51:00,59.0,59.0,30.02,North,0,0.0,-999.0,99,0.00,,,-99.99,,2013-01-26 17:51:00,
2013-01-26 10:22:00,59.0,59.0,30.02,North,0,0.0,-999.0,99,0.00,,,-99.99,,2013-01-26 18:22:00,
2013-01-26 10:32:00,59.0,59.0,30.02,North,0,0.0,-999.0,99,0.00,,,-99.99,,2013-01-26 18:32:00,
2013-01-26 10:42:00,59.0,59.0,30.02,North,0,0.0,-999.0,99,0.00,,,-99.99,,2013-01-26 18:42:00,
2013-01-26 10:51:00,59.0,59.0,30.03,South,170,7.0,-999.0,99,0.00,,,-99.99,,2013-01-26 18:51:00,
2013-01-26 11:22:00,59.0,59.0,30.03,South,170,7.0,-999.0,99,0.00,,,-99.99,,2013-01-26 19:22:00,
2013-01-26 11:32:00,59.0,59.0,30.03,South,170,7.0,-999.0,99,0.00,,,-99.99,,2013-01-26 19:32:00,
2013-01-26 11:42:00,59.0,59.0,30.03,South,170,7.0,-999.0,99,0.00,,,-99.99,,2013-01-26 19:42:00,
2013-01-26 11:51:00,59.0,59.0,30.02,North,0,0.0,-999.0,99,0.00,,,-99.99,,2013-01-26 19:51:00,
2013-01-26 12:21:00,59.0,59.0,30.02,North,0,0.0,-999.0,99,0.00,,,-99.99,,2013-01-26 20:21:00,
2013-01-26 12:32:00,59.0,59.0,30.02,North,0,0.0,-999.0,99,0.00,,,-99.99,,2013-01-26 20:32:00,
2013-01-26 12:42:00,59.0,59.0,30.02,North,0,0.0,-999.0,99,0.00,,,-99.99,,2013-01-26 20:42:00,
2013-01-26 12:51:00,59.0,59.0,30.00,South,170,10.0,-999.0,99,0.00,,,-99.99,,2013-01-26 20:51:00,
2013-01-26 13:22:00,59.0,59.0,30.00,South,170,10.0,-999.0,99,0.00,,,-99.99,,2013-01-26 21:22:00,
2013-01-26 13:32:00,59.0,59.0,30.00,South,170,10.0,-999.0,99,0.00,,,-99.99,,2013-01-26 21:32:00,
2013-01-26 13:42:00,59.0,59.0,30.00,South,170,10.0,-999.0,99,0.00,,,-99.99,,2013-01-26 21:42:00,
2013-01-26 13:51:00,59.0,59.0,29.99,SSE,160,10.0,-999.0,99,0.00,,,-99.99,,2013-01-26 21:51:00,
2013-01-26 14:21:00,59.0,59.0,29.99,SSE,160,10.0,-999.0,99,0.00,,,-99.99,,2013-01-26 22:21:00,
2013-01-26 14:31:00,59.0,59.0,29.99,SSE,160,10.0,-999.0,99,0.00,,,-99.99,,2013-01-26 22:31:00,
2013-01-26 14:42:00,59.0,59.0,29.99,SSE,160,10.0,-999.0,99,0.00,,,-99.99,,2013-01-26 22:42:00,
2013-01-26 14:51:00,58.0,57.0,30.01,SSW,210,13.0,-999.0,98,0.00,,,-99.99,,2013-01-26 22:51:00,
2013-01-26 15:21:00,58.0,57.0,30.01,SSW,210,13.0,-999.0,98,0.00,,,-99.99,,2013-01-26 23:21:00,
2013-01-26 15:32:00,58.0,57.0,30.01,SSW,210,13.0,-999.0,98,0.00,,,-99.99,,2013-01-26 23:32:00,
2013-01-26 15:41:00,58.0,57.0,30.01,SSW,210,13.0,-999.0,98,0.00,,,-99.99,,2013-01-26 23:41:00,
2013-01-26 15:51:00,58.0,57.0,30.02,SSW,200,8.0,-999.0,97,0.00,,,-99.99,,2013-01-26 23:51:00,
2013-01-26 16:21:00,58.0,57.0,30.02,SSW,200,8.0,-999.0,97,0.00,,,-99.99,,2013-01-27 00:21:00,
2013-01-26 16:32:00,58.0,57.0,30.02,SSW,200,8.0,-999.0,97,0.00,,,-99.99,,2013-01-27 00:32:00,
2013-01-26 16:41:00,58.0,57.0,30.02,SSW,200,8.0,-999.0,97,0.00,,,-99.99,,2013-01-27 00:41:00,
2013-01-26 16:51:00,58.0,57.0,30.03,SW,230,6.0,-999.0,97,0.00,,,-99.99,,2013-01-27 00:51:00,
2013-01-26 17:22:00,58.0,57.0,30.03,SW,230,6.0,-999.0,97,0.00,,,-99.99,,2013-01-27 01:22:00,
2013-01-26 17:32:00,58.0,57.0,30.03,SW,230,6.0,-999.0,97,0.00,,,-99.99,,2013-01-27 01:32:00,
2013-01-26 17:41:00,58.0,57.0,30.03,SW,230,6.0,-999.0,97,0.00,,,-99.99,,2013-01-27 01:41:00,
2013-01-26 17:51:00,58.0,57.0,30.04,SSE,150,4.0,-999.0,98,0.00,,,-99.99,,2013-01-27 01:51:00,
2013-01-26 18:21:00,58.0,57.0,30.04,SSE,150,4.0,-999.0,98,0.00,,,-99.99,,2013-01-27 02:21:00,
2013-01-26 18:31:00,58.0,57.0,30.04,SSE,150,4.0,-999.0,98,0.00,,,-99.99,,2013-01-27 02:31:00,
2013-01-26 18:41:00,58.0,57.0,30.04,SSE,150,4.0,-999.0,98,0.00,,,-99.99,,2013-01-27 02:41:00,
2013-01-26 18:51:00,58.0,57.0,30.05,ESE,120,1.0,-999.0,98,0.00,,,-99.99,,2013-01-27 02:51:00,
2013-01-26 19:21:00,58.0,57.0,30.05,ESE,120,1.0,-999.0,98,0.00,,,-99.99,,2013-01-27 03:21:00,
2013-01-26 19:31:00,58.0,57.0,30.05,ESE,120,1.0,-999.0,98,0.00,,,-99.99,,2013-01-27 03:31:00,
2013-01-26 19:41:00,58.0,57.0,30.05,ESE,120,1.0,-999.0,98,0.00,,,-99.99,,2013-01-27 03:41:00,
2013-01-26 19:51:00,58.0,57.0,30.06,SE,130,10.0,-999.0,98,0.00,,,-99.99,,2013-01-27 03:51:00,
2013-01-26 20:21:00,58.0,57.0,30.06,SE,130,10.0,-999.0,98,0.00,,,-99.99,,2013-01-27 04:21:00,
2013-01-26 20:31:00,58.0,57.0,30.06,SE,130,10.0,-999.0,98,0.00,,,-99.99,,2013-01-27 04:31:00,
2013-01-26 20:41:00,58.0,57.0,30.06,SE,130,10.0,-999.0,98,0.00,,,-99.99,,2013-01-27 04:41:00,
2013-01-26 20:51:00,58.0,57.0,30.07,SSE,160,7.0,-999.0,98,0.00,,,-99.99,,2013-01-27 04:51:00,
2013-01-26 21:22:00,58.0,57.0,30.07,SSE,160,7.0,-999.0,98,0.00,,,-99.99,,2013-01-27 05:22:00,
2013-01-26 21:32:00,58.0,57.0,30.07,SSE,160,7.0,-999.0,98,0.00,,,-99.99,,2013-01-27 05:32:00,
2013-01-26 21:41:00,58.0,57.0,30.07,SSE,160,7.0,-999.0,98,0.00,,,-99.99,,2013-01-27 05:41:00,
2013-01-26 21:51:00,58.0,57.0,30.08,South,170,12.0,-999.0,98,0.00,,,-99.99,,2013-01-27 05:51:00,
2013-01-26 22:21:00,58.0,57.0,30.08,South,170,12.0,-999.0,98,0.00,,,-99.99,,2013-01-27 06:21:00,
2013-01-26 22:31:00,58.0,57.0,30.08,South,170,12.0,-999.0,98,0.00,,,-99.99,,2013-01-27 06:31:00,
2013-01-26 22:41:00,58.0,57.0,30.08,South,170,12.0,-999.0,98,0.00,,,-99.99,,2013-01-27 06:41:00,
2013-01-26 22:51:00,57.0,56.0,30.09,SSW,210,7.0,-999.0,98,0.02,,,-99.99,,2013-01-27 06:51:00,
2013-01-26 23:21:00,57.0,56.0,30.09,SSW,210,7.0,-999.0,98,0.02,,,-99.99,,2013-01-27 07:21:00,
2013-01-26 23:31:00,57.0,56.0,30.09,SSW,210,7.0,-999.0,98,0.02,,,-99.99,,2013-01-27 07:31:00,
2013-01-26 23:41:00,57.0,56.0,30.09,SSW,210,7.0,-999.0,98,0.02,,,-99.99,,2013-01-27 07:41:00,
2013-01-26 23:51:00,56.0,56.0,30.10,SSE,160,6.0,-999.0,99,0.01,,,-99.99,,2013-01-27 07:51:00,